Time,TemperatureF,DewpointF,PressureIn,WindDirection,WindDirectionDegrees,WindSpeedMPH,WindSpeedGustMPH,Humidity,HourlyPrecipIn,Conditions,Clouds,dailyrainin,SoftwareType,DateUTC
2013-02-10 00:00:00,63.6,61.5,30.01,ESE,112,5.0,11.0,93,0.00,,SKC,0.00,VWS V14.01,2013-02-10 06:00:00,
2013-02-10 00:12:00,63.7,61.0,30.01,SE,132,4.0,9.0,92,0.00,,,0.00,weatherlink.com 1.10,2013-02-10 06:12:00,
2013-02-10 00:27:00,64.0,62.0,30.00,East,101,1.0,10.0,92,0.00,,,0.00,weatherlink.com 1.10,2013-02-10 06:27:00,
2013-02-10 00:42:00,64.1,62.0,30.01,East,95,2.0,7.0,92,0.00,,,0.00,weatherlink.com 1.10,2013-02-10 06:42:00,
2013-02-10 00:57:00,64.5,62.0,30.02,ESE,117,0.0,5.0,92,0.00,,,0.00,weatherlink.com 1.10,2013-02-10 06:57:00,
2013-02-10 01:00:00,64.5,62.1,30.02,ESE,112,3.0,10.0,92,0.00,,SKC,0.00,VWS V14.01,2013-02-10 07:00:00,
2013-02-10 01:12:00,64.9,62.0,30.02,East,101,3.0,9.0,91,0.00,,,0.00,weatherlink.com 1.10,2013-02-10 07:12:00,
2013-02-10 01:27:00,65.3,62.0,30.01,ESE,108,5.0,10.0,90,0.00,,,0.00,weatherlink.com 1.10,2013-02-10 07:27:00,
2013-02-10 01:42:00,65.4,63.0,30.00,ESE,111,7.0,10.0,90,0.00,,,0.00,weatherlink.com 1.10,2013-02-10 07:42:00,
2013-02-10 01:57:00,65.3,62.0,29.99,SE,138,7.0,10.0,90,0.00,,,0.00,weatherlink.com 1.10,2013-02-10 07:57:00,
2013-02-10 02:00:00,65.3,62.3,29.99,ESE,112,4.0,11.0,90,0.00,,SKC,0.00,VWS V14.01,2013-02-10 08:00:00,
2013-02-10 02:12:00,65.2,63.0,30.00,SSE,160,4.0,9.0,91,0.00,,,0.00,weatherlink.com 1.10,2013-02-10 08:12:00,
2013-02-10 02:27:00,65.1,63.0,29.98,ESE,102,3.0,12.0,91,0.00,,,0.00,weatherlink.com 1.10,2013-02-10 08:27:00,
2013-02-10 02:42:00,65.2,63.0,29.98,ESE,116,5.0,15.0,91,0.00,,,0.00,weatherlink.com 1.10,2013-02-10 08:42:00,
2013-02-10 02:57:00,64.9,63.0,29.98,SSE,153,4.0,14.0,92,0.01,,,0.01,weatherlink.com 1.10,2013-02-10 08:57:00,
2013-02-10 03:00:00,64.9,62.5,29.98,SE,135,6.0,18.0,92,0.01,,SKC,0.01,VWS V14.01,2013-02-10 09:00:00,
2013-02-10 03:12:00,64.9,63.0,29.98,SE,134,5.0,9.0,92,0.01,,,0.01,weatherlink.com 1.10,2013-02-10 09:12:00,
2013-02-10 03:27:00,65.0,63.0,29.97,SE,138,6.0,14.0,92,0.01,,,0.01,weatherlink.com 1.10,2013-02-10 09:27:00,
2013-02-10 03:42:00,65.2,63.0,29.96,SSE,153,4.0,13.0,91,0.01,,,0.01,weatherlink.com 1.10,2013-02-10 09:42:00,
2013-02-10 03:57:00,65.2,63.0,29.96,SE,143,6.0,12.0,91,0.00,,,0.01,weatherlink.com 1.10,2013-02-10 09:57:00,
2013-02-10 04:00:00,65.2,62.5,29.96,ESE,112,6.0,14.0,91,0.01,,SKC,0.01,VWS V14.01,2013-02-10 10:00:00,
2013-02-10 04:12:00,65.1,63.0,29.95,SE,138,7.0,13.0,91,0.00,,,0.01,weatherlink.com 1.10,2013-02-10 10:12:00,
2013-02-10 04:27:00,65.2,63.0,29.95,ESE,120,5.0,18.0,91,0.00,,,0.01,weatherlink.com 1.10,2013-02-10 10:27:00,
2013-02-10 04:42:00,65.2,63.0,29.95,SE,140,9.0,19.0,91,0.00,,,0.01,weatherlink.com 1.10,2013-02-10 10:42:00,
2013-02-10 04:57:00,65.4,63.0,29.95,SE,126,17.0,17.0,91,0.00,,,0.01,weatherlink.com 1.10,2013-02-10 10:57:00,
2013-02-10 05:00:00,65.4,62.7,29.95,SE,135,7.0,20.0,91,0.00,,SKC,0.01,VWS V14.01,2013-02-10 11:00:00,
2013-02-10 05:12:00,65.6,63.0,29.95,SSE,148,11.0,18.0,91,0.00,,,0.01,weatherlink.com 1.10,2013-02-10 11:12:00,
2013-02-10 05:27:00,65.5,63.0,29.96,SE,134,5.0,12.0,91,0.00,,,0.01,weatherlink.com 1.10,2013-02-10 11:27:00,
2013-02-10 05:42:00,65.6,63.0,29.96,SE,124,5.0,14.0,91,0.00,,,0.01,weatherlink.com 1.10,2013-02-10 11:42:00,
2013-02-10 05:57:00,65.8,63.0,29.96,SE,145,7.0,12.0,91,0.00,,,0.01,weatherlink.com 1.10,2013-02-10 11:57:00,
2013-02-10 06:00:00,65.8,63.1,29.96,SE,135,7.0,18.0,91,0.00,,SKC,0.01,VWS V14.01,2013-02-10 12:00:00,
2013-02-10 06:12:00,65.9,63.0,29.96,SE,128,6.0,19.0,91,0.00,,,0.01,weatherlink.com 1.10,2013-02-10 12:12:00,
2013-02-10 06:27:00,66.0,63.0,29.96,SSE,161,7.0,18.0,91,0.00,,,0.01,weatherlink.com 1.10,2013-02-10 12:27:00,
2013-02-10 06:43:00,66.0,63.0,29.97,ESE,121,13.0,19.0,91,0.00,,,0.01,weatherlink.com 1.10,2013-02-10 12:43:00,
2013-02-10 06:58:00,66.2,64.0,29.97,SSE,147,6.0,15.0,91,0.00,,,0.01,weatherlink.com 1.10,2013-02-10 12:58:00,
2013-02-10 07:00:00,66.1,63.4,29.97,SE,135,8.0,19.0,91,0.00,,SKC,0.01,VWS V14.01,2013-02-10 13:00:00,
2013-02-10 07:13:00,66.2,64.0,29.97,SE,131,9.0,17.0,91,0.00,,,0.01,weatherlink.com 1.10,2013-02-10 13:13:00,
2013-02-10 07:28:00,66.2,64.0,29.98,East,101,7.0,13.0,91,0.00,,,0.01,weatherlink.com 1.10,2013-02-10 13:28:00,
2013-02-10 07:43:00,66.5,64.0,29.98,SE,128,6.0,12.0,91,0.00,,,0.01,weatherlink.com 1.10,2013-02-10 13:43:00,
2013-02-10 07:58:00,66.9,64.0,29.97,SE,144,5.0,16.0,91,0.00,,,0.01,weatherlink.com 1.10,2013-02-10 13:58:00,
2013-02-10 08:00:00,66.9,64.2,29.97,SE,135,7.0,17.0,91,0.00,,SKC,0.01,VWS V14.01,2013-02-10 14:00:00,
2013-02-10 08:13:00,67.3,65.0,29.99,SSE,161,12.0,16.0,91,0.00,,,0.01,weatherlink.com 1.10,2013-02-10 14:13:00,
2013-02-10 08:28:00,67.8,65.0,29.98,SSE,157,7.0,17.0,91,0.00,,,0.01,weatherlink.com 1.10,2013-02-10 14:28:00,
2013-02-10 08:43:00,68.8,66.0,29.98,SE,130,16.0,17.0,89,0.00,,,0.01,weatherlink.com 1.10,2013-02-10 14:43:00,
2013-02-10 08:58:00,69.8,66.0,29.98,SE,144,17.0,21.0,88,0.00,,,0.01,weatherlink.com 1.10,2013-02-10 14:58:00,
2013-02-10 09:00:00,69.9,65.9,29.98,SE,135,9.0,21.0,87,0.00,,SKC,0.01,VWS V14.01,2013-02-10 15:00:00,
2013-02-10 09:13:00,69.7,66.0,29.97,SSE,148,12.0,20.0,88,0.00,,,0.01,weatherlink.com 1.10,2013-02-10 15:13:00,
2013-02-10 09:28:00,69.6,66.0,29.96,South,175,5.0,16.0,88,0.00,,,0.01,weatherlink.com 1.10,2013-02-10 15:28:00,
2013-02-10 09:43:00,69.6,66.0,29.97,East,90,10.0,15.0,88,0.00,,,0.01,weatherlink.com 1.10,2013-02-10 15:43:00,
2013-02-10 09:58:00,69.7,66.0,29.97,South,173,9.0,18.0,88,0.00,,,0.01,weatherlink.com 1.10,2013-02-10 15:58:00,
2013-02-10 10:00:00,69.7,66.0,29.97,SSE,158,10.0,23.0,88,0.00,,SKC,0.01,VWS V14.01,2013-02-10 16:00:00,
2013-02-10 10:13:00,70.2,67.0,29.97,ESE,123,16.0,19.0,88,0.00,,,0.01,weatherlink.com 1.10,2013-02-10 16:13:00,
2013-02-10 10:28:00,70.4,67.0,29.97,SSE,156,13.0,18.0,88,0.00,,,0.01,weatherlink.com 1.10,2013-02-10 16:28:00,
2013-02-10 10:43:00,70.8,67.0,29.96,SSE,162,8.0,17.0,88,0.00,,,0.01,weatherlink.com 1.10,2013-02-10 16:43:00,
2013-02-10 10:58:00,71.0,67.0,29.95,South,178,8.0,16.0,88,0.00,,,0.01,weatherlink.com 1.10,2013-02-10 16:58:00,
2013-02-10 11:00:00,71.0,67.3,29.94,SE,135,9.0,19.0,88,0.00,,SKC,0.01,VWS V14.01,2013-02-10 17:00:00,
2013-02-10 11:13:00,71.8,68.0,29.95,SE,141,13.0,19.0,87,0.00,,,0.01,weatherlink.com 1.10,2013-02-10 17:13:00,
2013-02-10 11:28:00,71.9,68.0,29.94,SE,126,12.0,18.0,87,0.00,,,0.01,weatherlink.com 1.10,2013-02-10 17:28:00,
2013-02-10 11:43:00,71.7,68.0,29.93,South,170,12.0,15.0,88,0.00,,,0.01,weatherlink.com 1.10,2013-02-10 17:43:00,
2013-02-10 11:58:00,71.6,68.0,29.94,SSE,156,6.0,19.0,89,0.00,,,0.01,weatherlink.com 1.10,2013-02-10 17:58:00,
2013-02-10 12:00:00,71.5,68.1,29.93,SSE,158,9.0,19.0,89,0.00,,SKC,0.01,VWS V14.01,2013-02-10 18:00:00,
2013-02-10 12:13:00,71.5,69.0,29.93,SE,143,11.0,24.0,90,0.00,,,0.01,weatherlink.com 1.10,2013-02-10 18:13:00,
2013-02-10 12:28:00,71.5,69.0,29.93,ESE,105,13.0,15.0,90,0.00,,,0.01,weatherlink.com 1.10,2013-02-10 18:28:00,
2013-02-10 12:43:00,71.8,69.0,29.93,SSE,156,4.0,15.0,90,0.00,,,0.01,weatherlink.com 1.10,2013-02-10 18:43:00,
2013-02-10 12:58:00,71.9,69.0,29.93,South,172,10.0,14.0,90,0.00,,,0.01,weatherlink.com 1.10,2013-02-10 18:58:00,
2013-02-10 13:00:00,71.9,68.8,29.93,SSE,158,8.0,24.0,90,0.00,,SKC,0.01,VWS V14.01,2013-02-10 19:00:00,
2013-02-10 13:13:00,72.1,69.0,29.92,SSE,155,5.0,15.0,90,0.00,,,0.01,weatherlink.com 1.10,2013-02-10 19:13:00,
2013-02-10 13:28:00,73.0,70.0,29.91,South,177,11.0,17.0,89,0.00,,,0.01,weatherlink.com 1.10,2013-02-10 19:28:00,
2013-02-10 13:59:00,74.0,70.0,29.91,SSE,148,15.0,22.0,87,0.00,,,0.01,weatherlink.com 1.10,2013-02-10 19:59:00,
2013-02-10 14:00:00,74.1,70.0,29.91,SSE,158,9.0,23.0,87,0.00,,SKC,0.01,VWS V14.01,2013-02-10 20:00:00,
2013-02-10 14:13:00,74.2,70.0,29.91,South,189,9.0,20.0,87,0.00,,,0.01,weatherlink.com 1.10,2013-02-10 20:13:00,
2013-02-10 14:28:00,74.5,70.0,29.91,SE,137,17.0,27.0,86,0.00,,,0.01,weatherlink.com 1.10,2013-02-10 20:28:00,
2013-02-10 14:43:00,74.6,70.0,29.91,SE,145,9.0,22.0,86,0.00,,,0.01,weatherlink.com 1.10,2013-02-10 20:43:00,
2013-02-10 14:58:00,74.7,70.0,29.92,SSE,155,5.0,22.0,86,0.00,,,0.01,weatherlink.com 1.10,2013-02-10 20:58:00,
2013-02-10 15:00:00,74.7,70.2,29.92,South,180,11.0,27.0,86,0.00,,SKC,0.01,VWS V14.01,2013-02-10 21:00:00,
2013-02-10 15:13:00,74.4,70.0,29.92,South,170,4.0,22.0,87,0.00,,,0.01,weatherlink.com 1.10,2013-02-10 21:13:00,
2013-02-10 15:28:00,74.3,70.0,29.92,South,188,8.0,18.0,86,0.00,,,0.01,weatherlink.com 1.10,2013-02-10 21:28:00,
2013-02-10 15:43:00,74.0,70.0,29.92,SSW,209,3.0,18.0,87,0.00,,,0.01,weatherlink.com 1.10,2013-02-10 21:43:00,
2013-02-10 15:58:00,73.8,70.0,29.92,South,191,9.0,19.0,88,0.00,,,0.01,weatherlink.com 1.10,2013-02-10 21:58:00,
2013-02-10 16:00:00,73.8,70.0,29.92,South,180,9.0,21.0,88,0.00,,SKC,0.01,VWS V14.01,2013-02-10 22:00:00,
2013-02-10 16:14:00,73.7,70.0,29.91,SSE,153,6.0,19.0,88,0.00,,,0.01,weatherlink.com 1.10,2013-02-10 22:14:00,
2013-02-10 16:29:00,73.7,70.0,29.92,SSW,195,7.0,27.0,88,0.00,,,0.01,weatherlink.com 1.10,2013-02-10 22:29:00,
2013-02-10 16:43:00,73.8,70.0,29.92,South,182,10.0,20.0,88,0.00,,,0.01,weatherlink.com 1.10,2013-02-10 22:43:00,
2013-02-10 16:58:00,73.6,70.0,29.92,South,173,10.0,20.0,88,0.00,,,0.01,weatherlink.com 1.10,2013-02-10 22:58:00,
2013-02-10 17:00:00,73.6,69.8,29.92,South,180,10.0,27.0,88,0.00,,SKC,0.01,VWS V14.01,2013-02-10 23:00:00,
2013-02-10 17:13:00,73.3,70.0,29.92,South,172,8.0,16.0,89,0.00,,,0.01,weatherlink.com 1.10,2013-02-10 23:13:00,
2013-02-10 17:28:00,73.1,70.0,29.92,South,175,9.0,19.0,89,0.00,,,0.01,weatherlink.com 1.10,2013-02-10 23:28:00,
2013-02-10 17:44:00,72.7,70.0,29.93,SSW,195,13.0,16.0,90,0.00,,,0.01,weatherlink.com 1.10,2013-02-10 23:44:00,
2013-02-10 18:00:00,72.4,69.6,29.93,South,180,9.0,23.0,91,0.00,,SKC,0.01,VWS V14.01,2013-02-11 00:00:00,
2013-02-10 18:13:00,72.1,70.0,29.94,SW,217,5.0,15.0,92,0.00,,,0.01,weatherlink.com 1.10,2013-02-11 00:13:00,
2013-02-10 18:28:00,71.9,70.0,29.94,South,184,5.0,12.0,92,0.00,,,0.01,weatherlink.com 1.10,2013-02-11 00:28:00,
2013-02-10 18:43:00,71.8,69.0,29.94,SSE,168,3.0,13.0,92,0.00,,,0.01,weatherlink.com 1.10,2013-02-11 00:43:00,
2013-02-10 18:58:00,71.9,70.0,29.94,SE,138,5.0,10.0,92,0.00,,,0.01,weatherlink.com 1.10,2013-02-11 00:58:00,
2013-02-10 19:00:00,71.8,69.3,29.94,South,180,6.0,16.0,92,0.00,,SKC,0.01,VWS V14.01,2013-02-11 01:00:00,
2013-02-10 19:13:00,71.9,70.0,29.95,SSW,194,7.0,12.0,92,0.00,,,0.01,weatherlink.com 1.10,2013-02-11 01:13:00,
2013-02-10 19:28:00,71.8,69.0,29.95,South,173,8.0,11.0,92,0.00,,,0.01,weatherlink.com 1.10,2013-02-11 01:28:00,
2013-02-10 19:43:00,71.8,69.0,29.97,South,182,5.0,10.0,92,0.00,,,0.01,weatherlink.com 1.10,2013-02-11 01:43:00,
2013-02-10 19:58:00,71.6,69.0,29.96,SSE,155,4.0,12.0,92,0.00,,,0.01,weatherlink.com 1.10,2013-02-11 01:58:00,
2013-02-10 20:00:00,71.5,69.1,29.96,SSE,158,5.0,12.0,92,0.00,,SKC,0.01,VWS V14.01,2013-02-11 02:00:00,
2013-02-10 20:14:00,71.4,69.0,29.97,South,180,4.0,9.0,92,0.00,,,0.01,weatherlink.com 1.10,2013-02-11 02:14:00,
2013-02-10 20:29:00,71.3,69.0,29.98,South,185,5.0,9.0,93,0.00,,,0.01,weatherlink.com 1.10,2013-02-11 02:29:00,
2013-02-10 20:44:00,71.2,69.0,29.97,South,171,3.0,10.0,93,0.00,,,0.01,weatherlink.com 1.10,2013-02-11 02:44:00,
2013-02-10 20:59:00,70.8,69.0,29.97,SSE,161,3.0,9.0,93,0.00,,,0.01,weatherlink.com 1.10,2013-02-11 02:59:00,
2013-02-10 21:00:00,70.8,68.7,29.97,SSE,158,5.0,10.0,93,0.00,,SKC,0.01,VWS V14.01,2013-02-11 03:00:00,
2013-02-10 21:13:00,70.4,69.0,29.97,SSE,161,5.0,12.0,94,0.00,,,0.01,weatherlink.com 1.10,2013-02-11 03:13:00,
2013-02-10 21:28:00,70.1,69.0,29.97,SSE,162,5.0,11.0,95,0.00,,,0.01,weatherlink.com 1.10,2013-02-11 03:28:00,
2013-02-10 21:43:00,70.2,69.0,29.98,SSW,196,7.0,11.0,95,0.00,,,0.01,weatherlink.com 1.10,2013-02-11 03:43:00,
2013-02-10 21:59:00,70.1,69.0,29.98,South,191,3.0,10.0,95,0.00,,,0.01,weatherlink.com 1.10,2013-02-11 03:59:00,
2013-02-10 22:00:00,70.1,68.6,29.98,SSE,158,5.0,11.0,95,0.00,,SKC,0.01,VWS V14.01,2013-02-11 04:00:00,
2013-02-10 22:14:00,70.1,69.0,29.98,SE,132,6.0,9.0,95,0.00,,,0.01,weatherlink.com 1.10,2013-02-11 04:14:00,
2013-02-10 22:29:00,70.3,69.0,29.98,South,183,2.0,11.0,95,0.00,,,0.01,weatherlink.com 1.10,2013-02-11 04:29:00,
2013-02-10 22:44:00,70.3,69.0,29.98,SW,214,2.0,10.0,95,0.00,,,0.01,weatherlink.com 1.10,2013-02-11 04:44:00,
2013-02-10 23:00:00,70.4,68.9,29.99,SSE,158,5.0,11.0,95,0.00,,SKC,0.01,VWS V14.01,2013-02-11 05:00:00,
2013-02-10 23:13:00,70.4,69.0,29.99,SE,144,8.0,9.0,95,0.00,,,0.01,weatherlink.com 1.10,2013-02-11 05:13:00,
2013-02-10 23:28:00,70.4,69.0,29.99,South,172,4.0,7.0,94,0.00,,,0.01,weatherlink.com 1.10,2013-02-11 05:28:00,
2013-02-10 23:43:00,70.1,68.0,29.99,South,176,7.0,9.0,94,0.00,,,0.01,weatherlink.com 1.10,2013-02-11 05:43:00,
2013-02-10 23:59:00,70.1,69.0,29.98,SSE,158,4.0,10.0,95,0.00,,,0.01,weatherlink.com 1.10,2013-02-11 05:59:00,